Total_Precipitation_Accumulation
0.04 0.11 0.31 0.38 0.43 0.42 0.39 0.36 0.34 0.31 0.31 0.33 0.34 0.34 0.35 0.34 0.35 0.29 0.29 0.27 0.28 0.33 0.40 0.49 0.48 0.42 0.38 0.35 0.31 0.24 0.19 0.15 0.14 0.13 0.12 0.15 0.17 0.17 0.15 0.15 0.17 0.21 0.26
0.03 0.11 0.30 0.37 0.46 0.44 0.44 0.42 0.37 0.33 0.34 0.38 0.43 0.42 0.38 0.34 0.33 0.30 0.27 0.27 0.28 0.32 0.41 0.48 0.42 0.33 0.24 0.18 0.15 0.14 0.12 0.10 0.07 0.04 0.03 0.04 0.07 0.10 0.11 0.10 0.12 0.16 0.18
0.04 0.12 0.29 0.40 0.46 0.46 0.46 0.41 0.38 0.34 0.38 0.46 0.52 0.49 0.41 0.31 0.29 0.29 0.26 0.26 0.29 0.35 0.38 0.39 0.32 0.25 0.18 0.16 0.12 0.08 0.07 0.06 0.04 0.02 0.02 0.04 0.07 0.09 0.09 0.10 0.12 0.14 0.17
0.08 0.14 0.27 0.44 0.49 0.48 0.47 0.46 0.44 0.43 0.43 0.47 0.54 0.51 0.44 0.38 0.37 0.33 0.29 0.26 0.27 0.29 0.28 0.30 0.25 0.19 0.14 0.11 0.10 0.08 0.06 0.05 0.03 0.02 0.05 0.06 0.07 0.11 0.13 0.13 0.15 0.17 0.20
0.16 0.20 0.34 0.48 0.54 0.51 0.50 0.47 0.50 0.51 0.51 0.53 0.56 0.52 0.44 0.41 0.42 0.39 0.33 0.26 0.25 0.25 0.25 0.25 0.20 0.15 0.10 0.08 0.08 0.07 0.07 0.06 0.03 0.03 0.06 0.07 0.09 0.15 0.19 0.18 0.20 0.22 0.21
0.23 0.35 0.50 0.58 0.61 0.61 0.57 0.53 0.53 0.55 0.61 0.62 0.63 0.58 0.47 0.44 0.46 0.43 0.37 0.25 0.21 0.22 0.23 0.22 0.20 0.15 0.11 0.08 0.07 0.06 0.06 0.05 0.03 0.02 0.04 0.06 0.09 0.18 0.22 0.22 0.24 0.24 0.25
0.34 0.50 0.68 0.75 0.76 0.74 0.70 0.69 0.65 0.65 0.67 0.69 0.69 0.65 0.55 0.50 0.49 0.45 0.36 0.24 0.21 0.21 0.23 0.21 0.19 0.16 0.13 0.11 0.09 0.07 0.07 0.05 0.02 0.02 0.03 0.05 0.10 0.20 0.21 0.23 0.26 0.28 0.31
0.62 0.76 0.92 0.98 0.94 0.87 0.78 0.74 0.70 0.70 0.71 0.72 0.69 0.68 0.64 0.56 0.53 0.49 0.37 0.27 0.24 0.24 0.27 0.23 0.21 0.18 0.15 0.13 0.11 0.09 0.06 0.04 0.03 0.02 0.04 0.05 0.11 0.22 0.21 0.20 0.23 0.26 0.30
1.12 1.20 1.20 1.16 1.08 1.03 0.89 0.77 0.71 0.69 0.72 0.74 0.72 0.71 0.68 0.63 0.60 0.52 0.42 0.32 0.30 0.30 0.29 0.25 0.22 0.19 0.17 0.15 0.13 0.09 0.06 0.04 0.03 0.03 0.03 0.05 0.12 0.25 0.27 0.26 0.29 0.29 0.30
1.56 1.63 1.60 1.46 1.31 1.21 1.05 0.86 0.75 0.72 0.71 0.71 0.69 0.63 0.56 0.54 0.54 0.48 0.37 0.33 0.33 0.32 0.29 0.25 0.23 0.23 0.18 0.15 0.14 0.10 0.07 0.05 0.04 0.03 0.05 0.08 0.18 0.32 0.35 0.35 0.36 0.35 0.31
1.90 1.92 1.96 1.84 1.60 1.45 1.23 0.92 0.82 0.78 0.75 0.71 0.67 0.55 0.52 0.54 0.52 0.42 0.30 0.25 0.27 0.29 0.28 0.26 0.24 0.23 0.20 0.16 0.14 0.12 0.10 0.06 0.04 0.04 0.06 0.12 0.23 0.31 0.33 0.34 0.33 0.29 0.27
2.08 2.09 2.11 2.09 1.94 1.77 1.48 1.19 1.02 0.87 0.81 0.70 0.59 0.56 0.50 0.51 0.55 0.45 0.38 0.29 0.26 0.26 0.26 0.28 0.27 0.26 0.23 0.18 0.15 0.12 0.12 0.10 0.09 0.07 0.07 0.10 0.18 0.29 0.33 0.31 0.28 0.26 0.25
2.27 2.29 2.28 2.33 2.21 1.98 1.68 1.38 1.16 0.99 0.90 0.80 0.66 0.59 0.58 0.60 0.59 0.59 0.56 0.47 0.39 0.30 0.30 0.30 0.31 0.25 0.22 0.21 0.20 0.15 0.13 0.13 0.12 0.09 0.08 0.08 0.15 0.31 0.38 0.35 0.30 0.28 0.28
2.45 2.36 2.37 2.41 2.36 2.15 1.85 1.58 1.27 1.07 0.98 0.93 0.80 0.71 0.72 0.69 0.66 0.62 0.58 0.53 0.51 0.40 0.37 0.34 0.30 0.25 0.22 0.21 0.21 0.21 0.20 0.18 0.17 0.16 0.13 0.10 0.13 0.24 0.32 0.35 0.37 0.38 0.37
2.41 2.41 2.44 2.37 2.30 2.23 2.08 1.79 1.38 1.13 1.01 0.96 0.96 0.87 0.80 0.77 0.72 0.73 0.66 0.60 0.51 0.46 0.42 0.38 0.33 0.31 0.28 0.25 0.23 0.23 0.23 0.21 0.19 0.20 0.18 0.13 0.11 0.15 0.23 0.31 0.41 0.47 0.50
2.14 2.33 2.40 2.36 2.25 2.15 2.11 2.02 1.68 1.27 1.09 1.04 1.01 1.02 0.94 0.87 0.81 0.77 0.71 0.68 0.60 0.53 0.47 0.45 0.41 0.42 0.39 0.36 0.30 0.26 0.25 0.23 0.20 0.19 0.18 0.18 0.16 0.15 0.17 0.26 0.37 0.48 0.59
1.90 2.12 2.30 2.43 2.38 2.22 2.11 2.07 1.99 1.67 1.31 1.09 1.01 1.02 1.06 0.99 0.93 0.86 0.81 0.72 0.65 0.62 0.60 0.61 0.58 0.57 0.51 0.46 0.40 0.37 0.35 0.32 0.27 0.24 0.21 0.19 0.20 0.20 0.19 0.23 0.32 0.44 0.60
1.77 1.95 2.12 2.23 2.41 2.33 2.15 2.03 1.99 1.87 1.62 1.37 1.13 0.99 0.99 0.99 1.00 1.00 0.96 0.90 0.82 0.79 0.76 0.72 0.68 0.66 0.57 0.53 0.48 0.46 0.44 0.41 0.37 0.34 0.32 0.29 0.26 0.23 0.22 0.24 0.30 0.39 0.53
1.63 1.85 2.11 2.07 2.19 2.38 2.45 2.27 2.06 1.93 1.75 1.56 1.34 1.09 1.00 1.04 1.08 1.06 0.97 0.97 0.99 0.94 0.86 0.83 0.75 0.69 0.61 0.58 0.58 0.53 0.50 0.48 0.45 0.42 0.41 0.40 0.38 0.35 0.32 0.31 0.29 0.28 0.36
1.63 1.79 2.05 2.06 2.15 2.35 2.59 2.57 2.40 2.14 1.86 1.70 1.46 1.24 1.09 1.06 1.13 1.09 1.02 1.00 1.01 0.96 0.85 0.82 0.79 0.76 0.68 0.67 0.66 0.58 0.54 0.52 0.51 0.48 0.45 0.44 0.43 0.42 0.40 0.38 0.35 0.33 0.32
1.76 1.78 1.93 2.05 2.16 2.26 2.37 2.33 2.19 2.10 1.97 1.83 1.65 1.49 1.31 1.21 1.24 1.24 1.16 1.11 1.11 1.04 0.95 0.95 0.98 0.92 0.84 0.85 0.79 0.62 0.53 0.51 0.49 0.48 0.47 0.44 0.41 0.39 0.36 0.36 0.35 0.34 0.34
1.70 1.75 1.91 2.06 2.12 2.11 2.21 2.35 2.24 2.26 2.22 2.12 1.99 1.81 1.62 1.45 1.41 1.39 1.38 1.37 1.31 1.22 1.14 1.10 1.09 1.04 0.97 1.00 0.99 0.91 0.68 0.53 0.46 0.44 0.45 0.43 0.43 0.42 0.38 0.37 0.36 0.35 0.33
1.56 1.78 1.89 1.98 2.08 2.11 2.31 2.71 2.64 2.50 2.40 2.28 2.14 2.02 1.86 1.72 1.63 1.52 1.48 1.54 1.51 1.40 1.29 1.24 1.21 1.18 1.16 1.16 1.12 1.15 0.92 0.65 0.52 0.47 0.45 0.41 0.42 0.45 0.46 0.45 0.41 0.37 0.33
1.35 1.63 1.90 2.02 2.13 2.27 2.47 2.68 2.73 2.46 2.26 2.18 2.11 2.08 2.02 1.83 1.73 1.68 1.63 1.60 1.62 1.59 1.45 1.40 1.38 1.32 1.28 1.24 1.20 1.08 1.00 0.84 0.76 0.60 0.47 0.46 0.44 0.42 0.43 0.45 0.44 0.43 0.43
1.20 1.41 1.67 1.93 2.05 2.26 2.42 2.50 2.65 2.46 2.18 2.14 2.11 2.04 2.03 1.93 1.74 1.68 1.64 1.57 1.50 1.50 1.51 1.50 1.46 1.42 1.30 1.20 1.14 1.08 1.02 0.88 0.75 0.71 0.56 0.45 0.46 0.43 0.40 0.42 0.45 0.46 0.47
1.03 1.18 1.35 1.57 1.71 1.83 2.02 2.20 2.36 2.38 2.29 2.15 2.00 1.91 1.86 1.84 1.78 1.72 1.67 1.58 1.46 1.39 1.36 1.39 1.42 1.41 1.38 1.29 1.19 1.14 1.09 1.01 0.86 0.82 0.77 0.60 0.54 0.49 0.47 0.46 0.46 0.47 0.48